www.pogodaiklimat.ru

Погода и климат >> Архив погоды >> Россия >> Краснодарский край >> Красная Поляна


ПОГОДА в Красной Поляне

  • Прогноз погоды в Красной Поляне
  • Монитор погоды в Красной Поляне
  • Климат города

АРХИВ ПОГОДЫ в Красной Поляне

Время (UTC), дата Ветер
(напр.,м/с)
 
Видим.   Явления Облачность Т
(С)
Тd
(С)
f
(%)
Тe
(С)
Тes
(С)
Комфортность P
(гПа)
Po
(гПа)
Тmin
(С)
Tmax
(С)
R
(мм)
R24
(мм)
S
(см)
00 17.05 штиль 0 20 км ясно +12.0 +10.9 93 +11 +11 1019.7 953.6
03 17.05 штиль 0 20 км ясно +11.3 +10.4 94 +11 +12 1020.3 954.0 +11.0
06 17.05 Ю 1 20 км ясно +18.9 +11.5 62 +21 +33 комфорт 1018.0 953.5
09 17.05 ЮЗ 4 15 км 4/3 1000 м
[Cu med, cong Ac lent]
+23.7 +13.6 53 +26 +34 жарко 1016.5 953.1
12 17.05 ЮЗ 3 14 км 9/3 1000 м
[Cu med, cong Ac As Cs]
+25.8 +12.6 44 +28 +32 жарко 1015.2 952.3
15 17.05 З 1 10 км 9/3 1500 м
[Cu med, cong Ac As Cs]
+23.4 +11.5 47 +26 +27 жарко 1015.1 951.7 +26.1
18 17.05 С 2 10 км 8/0
[Ac As Cs]
+18.8 +11.9 64 +20 +20 1017.6 953.1
21 17.05 С 2 7000 м 6/0
[As trans Cs]
+15.9 +11.3 74 +16 +16 1018.5 953.3
00 18.05 С 2 17 км 3/0
[Cs]
+14.4 +11.0 80 +14 +14 1018.3 952.8
03 18.05 СВ 1 19 км 10/0
[As trans Cs]
+14.5 +10.5 77 +15 +15 1018.3 952.8 +12.7
06 18.05 Ю 1 18 км 3/0
[Ci]
+19.6 +11.4 59 +22 +33 комфорт 1016.5 952.2
09 18.05 ЮЗ 3 20 км 8/0
[Ac cast Ci]
+25.2 +11.4 42 +27 +37 жарко 1014.2 951.2
12 18.05 ЮЗ 2 20 км 10/0
[Ac cast Cs]
+23.9 +12.9 50 +26 +32 жарко 1014.6 951.4
15 18.05 ЮЗ 1 20 км 10/0
[Ac cast Cs]
+23.2 +13.7 55 +27 +28 душно 1014.2 950.9 +26.1
18 18.05 С 1 20 км 10/0
[Ci]
+18.9 +12.4 66 +21 +21 комфорт 1016.5 952.1
21 18.05 СВ 2 20 км в посл. час ливневой дождь 10/8 1000 м
[Cb cap As trans]
+17.2 +13.1 77 +18 +18 1017.1 952.3
00 19.05 штиль 0 20 км 10/6 1000 м
[Sc Ac trans]
+16.0 +12.9 82 +16 +16 1017.3 952.2
03 19.05 ЮВ 1 20 км 10/0
[Ac und]
+15.5 +12.1 80 +16 +16 1016.6 951.5 +15.1
06 19.05 ЮВ 1 20 км 10/9 1500 м
[Sc Ac cast]
+18.4 +12.8 70 +20 +20 1015.7 951.3
09 19.05 ЮЗ 3 20 км 10/3 1500 м
[Sc Ac cast]
+24.5 +12.8 48 +26 +30 жарко 1013.6 950.6
12 19.05 ЮЗ 3 20 км 4/4 1500 м
[Cu Sc]
+26.0 +11.4 40 +27 +34 жарко 1012.3 949.6
15 19.05 З 1 20 км 9/1 1500 м
[Cu med, cong Ci fib]
+23.7 +13.0 51 +26 +27 жарко 1012.1 949.0 +26.8
18 19.05 С 1 20 км 10/1 1000 м
[Sc Ac cast]
+19.6 +11.9 61 +22 +22 комфорт 1014.5 950.4
21 19.05 СВ 1 20 км 10/6 1000 м
[Sc Ci sp]
+17.4 +11.9 70 +18 +18 1014.9 950.3
00 20.05 штиль 0 20 км 10/3 1000 м
[Sc Ci sp]
+15.8 +11.4 75 +16 +16 1015.0 950.0
03 20.05 штиль 0 20 км 10/3 1500 м
[Sc Ac lent]
+14.8 +11.0 78 +15 +15 1014.9 949.7 +14.2
06 20.05 штиль 0 20 км 10/0
[Ac cast]
+18.6 +12.1 66 +19 +23 1014.0 949.7
09 20.05 Ю 1 20 км 9/3 1500 м
[Cu Sc Ac cast Ci fib]
+23.6 +13.2 52 +26 +35 жарко 1012.9 949.7
12 20.05 Ю 2 19 км 8/4 1500 м
[Cu Sc Ac cast]
+23.3 +15.4 61 +28 +32 душно 1012.0 948.9
15 20.05 З 2 20 км 8/6 1500 м
[Cu hum Ci fib]
+22.7 +12.6 53 +25 +26 комфорт 1011.9 948.6 +25.6
18 20.05 С 1 16 км 3/0
[Ci fib]
+18.2 +13.1 72 +20 +20 1014.3 949.9
21 20.05 СВ 1 20 км 8/0
[Ac cast]
+16.8 +13.5 81 +18 +18 1014.4 949.7
00 21.05 В 1 19 км 10/0
[Ac cast]
+16.1 +14.1 88 +17 +17 1014.8 950.0
03 21.05 штиль 0 20 км 10/10 1500 м
[Sc]
+15.7 +14.4 92 +15 +15 1015.6 950.6 +15.6
06 21.05 В 1 20 км 10/0
[Ac und]
+17.5 +13.8 79 +19 +22 1016.5 951.8
09 21.05 ЮЗ 2 20 км 9/4 1000 м
[Cu med, cong Ac As Ci]
+22.3 +13.4 57 +25 +32 комфорт 1015.0 951.4
12 21.05 З 1 20 км в посл. час ливневой дождь 10/10 1000 м
[Cb calv]
+18.8 +15.5 81 +21 +21 комфорт 1016.9 952.5
15 21.05 З 1 20 км 10/3 1000 м
[Cu med, cong Ac As]
+18.5 +15.7 84 +20 +21 1016.9 952.5 +23.4 0.4
18 21.05 штиль 0 14 км 10/10 270 м
[Sc]
+16.6 +16.6 100 +16 +16 1018.4 953.5
21 21.05 С 2 20 км 9/9 500 м
[Sc]
+15.1 +13.0 87 +15 +15 1018.6 953.3
00 22.05 В 1 19 км 10/10 1020 м
[Sc]
+13.3 +13.0 98 +13 +13 1019.5 953.7
03 22.05 штиль 0 20 км 3/0
[Cs]
+13.0 +11.4 90 +12 +14 1019.3 953.4 +12.8
06 22.05 З 1 20 км 8/0
[Ac cast Ci sp]
+18.1 +11.2 64 +19 +26 1018.2 953.5
09 22.05 ЮЗ 2 19 км 9/6 1000 м
[Cu med, cong Ac cast Ci sp]
+22.7 +13.5 56 +26 +31 жарко 1015.8 952.3
12 22.05 ЮЗ 3 19 км в посл. час ливневой дождь 8/6 1000 м
[Cb calv Ac cast]
+24.4 +16.1 60 +28 +31 душно 1014.4 951.4
15 22.05 З 1 18 км 8/8 1000 м
[Cb calv]
+24.0 +14.7 56 +27 +27 жарко 1014.7 951.5 +26.2 0.2
18 22.05 СВ 1 20 км {гроза, ливн. осадки} 8/4 1000 м
[Sc Ac cuf Ci sp]
+18.4 +16.9 91 +20 +20 1017.9 953.4
21 22.05 СВ 2 20 км {ливн. осадки} 9/6 1000 м
[Cb calv Ac cuf]
+16.8 +15.7 93 +17 +17 1017.8 953.0
00 23.05 С 2 20 км {ливн. осадки} 10/6 1000 м
[Cb calv Ac As]
+16.1 +14.6 91 +16 +16 1018.0 953.0
03 23.05 С 1 20 км 9/8 1500 м
[Sc Ac As]
+15.7 +15.4 98 +16 +16 1018.1 953.0 +15.5 2
06 23.05 ЮЗ 1 20 км 10/4 1500 м
[Sc Ac cast]
+18.6 +15.5 82 +21 +23 комфорт 1017.7 953.2
09 23.05 З 1 20 км 10/10 1500 м
[Sc]
+22.8 +14.9 61 +27 +27 душно 1016.2 952.7
12 23.05 З 2 20 км 8/8 1500 м
[Cu Sc]
+25.9 +16.7 57 +30 +32 душно 1014.0 951.3
15 23.05 ЮЗ 1 20 км 10/10 1230 м
[Sc]
+22.4 +17.5 74 +27 +27 душно 1014.7 951.3 +26.5
18 23.05 С 3 20 км 10/3 1000 м
[Sc Ac As]
+18.7 +15.6 82 +20 +20 1016.5 952.1
21 23.05 СВ 1 20 км 10/10 1000 м
[Sc]
+17.2 +15.0 87 +18 +18 1016.9 952.2

 

Местоположение метеостанции Красная Поляна (Краснодарский край, Россия): широта 43.68 долгота 40.20 высота над уровнем моря 567 м.

В архиве по умолчанию представлена погода в Красной Поляне за последнюю неделю. Архивные данные за месяц целиком и за предыдущие месяцы, начиная с января 2011 года, Вы можете получить, выбрав интересующий диапазон дат из раскрывающегося списка и нажав кнопку "Ввод!".


*Определитесь, кто Вы:
робот инопланетянин человек

Внимание! Время в таблицах - всемирное. Для получения местного времени необходимо прибавить поправку, которая в Красной Поляне равна 3 ч.

Смотрите также архив погоды в соседних городах и на ближайших метеорологических станциях:

Погода в Горная Карусель 1500 (Краснодарский край, Россия) (8 км)
Погода в Горная Карусель 1000 (Краснодарский край, Россия) (8 км)
Погода в Кордоне Лаура (Краснодарский край, Россия) (8 км)
Погода в Кепше (Краснодарский край, Россия) (14 км)
Погода в Гузерипле (Адыгея, Россия) (36 км)
Погода в Сочи (Краснодарский край, Россия) (36 км)
Погода в Сочи аэропорту (Адлер) (Краснодарский край, Россия) (37 км)
Погода в Имеретинке (Краснодарский край, Россия) (37 км)
Погода в Солох Ауле (Краснодарский край, Россия) (48 км)
Погода в Кичмае (Краснодарский край, Россия) (58 км)

Пояснения к столбцам:

Ветер - указаны скорость ветра в м/с - средняя за 10 мин, порывы в срок и между сроками (в фигурных скобках) и направление, откуда дует ветер: С - северный, СВ - северо-восточный, В - восточный, ЮВ - юго-восточный, Ю - южный, ЮЗ - юго-западный, З - западный, СЗ - северо-западный.
Видимость - горизонтальная дальность видимости в метрах или километрах. При видимости от 1 до 10 км при отсутствии осадков обычно наблюдается дымка, при ухудшении видимости до 1 км и менее - туман. В сухую погоду видимость может ухудшаться дымом, пылью или мглою.
Явления - указаны атмосферные явления, наблюдавшиеся в срок или в последний час перед сроком; фигурными скобками обозначены явления, наблюдавшиеся между сроками (за 1-3 часа до срока); квадратными скобками обозначены град или гололедные отложения с указанием их диаметра в мм.
Облачность - указаны через наклонную черту общая и нижняя облачность в баллах и высота нижней границы облаков в метрах; квадратными скобками обозначены формы облаков: Ci - перистые, Cs - перисто-слоистые, Cc - перисто-кучевые, Ac - высококучевые, As - высокослоистые, Sc - слоисто-кучевые, Ns - слоисто-дождевые, Cu - кучевые, Cb - кучево-дождевые. Подробнее классификацию облаков см. в Атласе облаков (PDF).
T - Температура воздуха - температура, измеренная на высоте 2 м над землей.
Td - Температура точки росы - температура, при понижении до которой содержащийся в воздухе водяной пар достигнет насыщения.
f - Относительная влажность воздуха - влажноcть воздуха, измеренная на высоте 2 м над землей.
Te - Эффективная температура - температура, которую ощущает одетый по сезону человек в тени. Характеристика душности погоды. При расчете учитывается влияние влажности воздуха и скорости ветра на теплоощущения человека.
Tes - Эффективная температура на солнце - температура, которую ощущает человек, с поправкой на солнечный нагрев. Характеристика знойности погоды. Зависит от высоты солнца над горизонтом, облачности и скорости ветра. Ночью, в пасмурную погоду, а также при ветре 12 м/с и более поправка равна нулю.
P - Атмосферное давление - приведенное к уровню моря атмосферное давление.
Po - Атмосферное давление - измеренное на уровне метеостанции атмосферное давление.
Tmin - Минимальная температура - минимум температуры воздуха на высоте 2 м над землей.
Tmax - Максимальная температура - максимум температуры воздуха на высоте 2 м над землей.
R - Количество осадков - Количество выпавших осадков за период времени, мм. При наведении курсора мыши на число - период времени, за который выпало указанное количество осадков.
R24 - Количество осадков - Количество выпавших осадков за 24 часа, мм.
S - Снежный покров - Высота снежного покрова, см. При наведении курсора мыши на число - состояние снежного покрова и степень покрытия местности в баллах.